Regional Weather Roundup
Issued by NWS

Home | Current Version | Previous Version | Graphics & Text | Print | Product List | Glossary On
Versions: 1 2 3 4 5 6 7 8 9 10 11 12 13 14 15 16 17 18 19 20 21 22 23 24 25 26 27 28 29 30 31 32 33 34 35 36 37 38 39 40 41 42 43 44 45 46 47 48 49 50
000
ASUS45 KSLC 091010
RWRUT

UTAH REGIONAL WEATHER ROUNDUP
NATIONAL WEATHER SERVICE SALT LAKE CITY UT
300 AM MST FRI DEC 09 2016

UTZ001>011-023>025-091100-

NORTHERN UTAH

CITY           SKY/WX    TMP DP  RH WIND       PRES   REMARKS
BRIGHAM CITY     N/A     27  23  87 CALM      30.19S
HILL AFB       CLOUDY    26  24  90 CALM      30.18R
LOGAN          CLOUDY    24  22  91 SE5       30.16R WCI  18
OGDEN          CLOUDY    29  26  89 E3        30.18R
SALT LAKE CITY FLURRIES  29  24  82 W10       30.20R WCI  20
WENDOVER       MOCLDY    21  16  79 CALM      30.20R
HEBER CITY     LGT SNOW  32  30  93 CALM      30.18R

$$

UTZ011>015-024>027-091100-

CENTRAL/NORTHEAST UTAH

CITY           SKY/WX    TMP DP  RH WIND       PRES   REMARKS
PROVO AIRPORT  CLOUDY    35  28  75 VRB7      30.22R WCI  29
MOAB/CANYONLAN PTCLDY    22   9  57 N3        30.30R
DELTA          CLOUDY    36  19  51 SE3       30.21R
PRICE          PTCLDY    21   8  57 CALM      30.26R
RICHFIELD      CLOUDY    30  19  64 W1        30.25R
ROOSEVELT      CLOUDY    16  12  86 CALM      30.28S
VERNAL         CLOUDY    22  13  68 CALM      30.25S

$$

UTZ013>016-019>022-027-091100-

SOUTHERN UTAH

CITY           SKY/WX    TMP DP  RH WIND       PRES   REMARKS
BRYCE CANYON   CLEAR     14  10  84 W9        30.27R WCI   2
CEDAR CITY     CLEAR     26  20  77 SE7       30.26R WCI  18
MILFORD        CLOUDY    35  15  44 S20       30.22R WCI  24
ST GEORGE      CLOUDY    34  16  47 S5        30.33R WCI  30
HANKSVILLE     CLEAR     21   9  58 CALM      30.35R
BLANDING       PTCLDY    32  16  52 S3        30.36R

$$

REGIONAL REPORTS     COLORADO/ARIZONA

CITY           SKY/WX    TMP DP  RH WIND       PRES   REMARKS
CRAIG, CO      CLOUDY    24  17  74 E5        30.17S WCI  18
GRAND JUNCTION CLOUDY    19  14  81 CALM      30.29R
RIFLE, CO      CLOUDY    24  16  71 CALM      30.28S
MONTROSE, CO   CLOUDY    27  18  69 CALM      30.28R
CORTEZ, CO     CLOUDY    28  23  81 E5        30.29S WCI  23
COLORADO CITY    N/A     23  21  93 E3        30.32R
PAGE, AZ       CLEAR     31   8  38 CALM      30.28S
GRAND CANYON   PTCLDY    25  23  92 NE3       30.31R
KINGMAN, AZ    CLOUDY    45  18  34 CALM      30.27R
FLAGSTAFF, AZ  CLEAR     25  23  92 CALM      30.30R

$$

REGIONAL REPORTS    NEVADA/IDAHO/WYOMING

CITY           SKY/WX    TMP DP  RH WIND       PRES   REMARKS
LAS VEGAS, NV  CLOUDY    47  14  26 CALM      30.28R
ELY, NY        CLEAR     22  11  62 SE5       30.24R WCI  16
ELKO, NV       CLOUDY    31  28  89 SW6       30.14S WCI  25
POCATELLO, ID  MIX PCPN  20  18  92 NE8       30.13R WCI  10
BURLEY, ID     CLOUDY    23  21  92 CALM      30.10R
FORT BRIDGER,  SNOW      25  25 100 W13       30.12R VSB 1/2 WCI  14
EVANSTON, WY   LGT SNOW  30  27  88 SW15      30.11R FOG     WCI  19
ROCK SPRINGS,  CLOUDY    10   8  92 CALM      30.09F

$$



USA.gov is the U.S. government's official web portal to all federal, state and local government web resources and services.